Regional Weather Roundup
Issued by NWS

Home | Current Version | Previous Version | Graphics & Text | Print | Product List | Glossary On
Versions: 1 2 3 4 5 6 7 8 9 10 11 12 13 14 15 16 17 18 19 20 21 22 23 24 25 26 27 28 29 30 31 32 33 34 35 36 37 38 39 40 41 42 43 44 45 46 47 48 49 50
000
ASUS43 KLOT 292108
RWRIL

ILLINOIS REGIONAL WEATHER ROUNDUP
NATIONAL WEATHER SERVICE CHICAGO/ROMEOVILLE IL
400 PM CDT THU SEP 29 2016

NOTE: "FAIR" INDICATES FEW OR NO CLOUDS BELOW 12,000 FEET WITH NO
SIGNIFICANT WEATHER AND/OR OBSTRUCTIONS TO VISIBILITY.

* THESE STATIONS ARE NOT UNDER NWS QUALITY CONTROL. THEY ALSO MAY NOT
  REPORT WEATHER SUCH AS PRECIPITATION OR FOG.

ILZ001-002-007-009-015-016-024-292200-
NORTHWEST ILLINOIS

CITY           SKY/WX    TMP DP  RH WIND       PRES   REMARKS
MOLINE         MOSUNNY   74  52  46 N13G22    30.21S
STERLING*      CLOUDY    69  56  62 NE13G22   30.21S
SAVANNA*       CLOUDY    72  53  49 N17G24    30.22F
$$

ILZ003-004-008-010-011-017-018-292200-
NORTH CENTRAL ILLINOIS

CITY           SKY/WX    TMP DP  RH WIND       PRES   REMARKS
ROCKFORD       CLOUDY    66  55  67 NE21      30.25R
FREEPORT*      CLOUDY    69  53  56 NE20      30.25S
ROCHELLE*      CLOUDY    64  56  73 NE21G26   30.23S
DE KALB*       CLOUDY    62  57  83 N17G26    30.22F
$$

ILZ005-006-012>014-019>023-292200-
NORTHEAST ILLINOIS

CITY           SKY/WX    TMP DP  RH WIND       PRES   REMARKS
CHICAGO-OHARE  CLOUDY    64  59  83 NE15      30.19R
CHICAGO-MIDWAY PTSUNNY   66  57  72 NE18G31   30.17S
AURORA         LGT RAIN  62  58  86 N14G24    30.20S FOG
LANSING*       PTSUNNY   65  60  83 NE20G26   30.15S
JOLIET*        CLOUDY    67  59  75 NE16G22   30.17R
WAUKEGAN       CLOUDY    62  58  86 NE9       30.23R
DUPAGE AIRPORT CLOUDY    62  58  86 N16       30.19S
KANKAKEE*      PTSUNNY   68  57  68 N14G20    30.13S
WHEELING       CLOUDY    64  58  80 NE13G22   30.22R
MORRIS*        CLOUDY    63  60  91 N7        30.16S
ROMEOVILLE*    CLOUDY    67  61  81 NE15G22   30.17R
NORTHERLY ISL    N/A     64  58  80 NE16        N/A
$$

LMZ740>746-292200-
SOUTHERN LAKE MICHIGAN

STATION/POSITION SKY/WX   TEMP    WIND        PRES    VSBY  WAVE
                          AIR SEA DIR/SP/G                  HT/PER
                          (F)     (DEG/KT/KT) (MB)    (MI)  (FT/S)
SOUTHERN BUOY              64 69   60/ 23/ 27 1022.5R         7/ 7
WILMETTE HARBOR            62 56   70/ 17/ 21   N/A           7/ 6
HARRISON CRIB              65      40/ 25/ 27   N/A
BURNHAM HARBOR             65      30/ 15/ 18   N/A
CALUMET HARBOR             65      10/ 15/ 21 1020.9F
BURNS HARBOR               64      30/ 23/ 26 1020.7F
MICHIGAN CITY              63      10/ 23/ 26   N/A
MICHIGAN CITY 6N           64 65   30/ 21/ 27   N/A           8/ 7
ST. JOSEPH                 64 64   30/ 16/ 19 1021.4          5/ 6
$$

ILZ025>027-034>036-040-047-049-050-058-095>099-292200-
WEST-CENTRAL ILLINOIS

CITY           SKY/WX    TMP DP  RH WIND       PRES   REMARKS
QUINCY         SUNNY     75  49  39 N18G25    30.18F
GALESBURG*     CLOUDY    70  54  56 N18       30.19S
MACOMB*        PTSUNNY   73  52  47 N17G24    30.21S
JACKSONVILLE*  CLOUDY    68  54  60 N12       30.17S
PITTSFIELD*    CLOUDY    71  53  52 N12G18    30.18F
$$

ILZ028>032-037-038-041>044-048-051>054-059>061-292200-
CENTRAL ILLINOIS

CITY           SKY/WX    TMP DP  RH WIND       PRES   REMARKS
PONTIAC        CLOUDY    66  64  94 N15       30.16R
BLOOMINGTON    LGT RAIN  61  59  93 N12       30.15S
DECATUR        MOSUNNY   69  56  62 N12       30.13R
PEORIA         CLOUDY    69  57  65 N9        30.16F
LACON*         PTSUNNY   64  59  83 NE6       30.18S
LINCOLN*       CLOUDY    66  60  79 N13G18    30.15S
SPRINGFIELD    PTSUNNY   66  60  81 N9        30.16S
TAYLORVILLE    CLOUDY    64  60  88 NW7       30.13S
$$

ILZ033-039-045-046-055>057-062-063-292200-
EAST-CENTRAL ILLINOIS

CITY           SKY/WX    TMP DP  RH WIND       PRES   REMARKS
CHAMPAIGN      MOSUNNY   71  52  50 N12G17    30.11S
RANTOUL*       MOSUNNY   71  56  57 NE10      30.11S
MATTOON        PTSUNNY   68  53  58 N13       30.10S
PARIS*         MOSUNNY   70  54  56 CALM      30.10S
$$

ILZ079-100>102-292200-
SOUTHWEST ILLINOIS

CITY           SKY/WX    TMP DP  RH WIND       PRES   REMARKS
ALTON          CLOUDY    61  54  77 N12       30.16S
BELLEVILLE     CLOUDY    62  58  87 N5        30.14S
CAHOKIA*       CLOUDY    67  53  61 NW12      30.15F
SPARTA*        DRIZZLE   59  57  95 NW6       30.17R
$$

ILZ064>066-069>071-074>076-080>082-084>086-088>090-092>094-292200-
SOUTH-CENTRAL ILLINOIS

CITY           SKY/WX    TMP DP  RH WIND       PRES   REMARKS
CARBONDALE     CLOUDY    62  58  86 N13       30.14R
CAIRO*         PTSUNNY   66  55  67 NW13      30.12S
EFFINGHAM*     CLOUDY    67  56  66 NW7       30.12S
MARION         PTSUNNY   64  57  77 N14       30.13R
MT. VERNON     PTSUNNY   64  54  68 W7        30.12S
CENTRALIA*     CLOUDY    64  58  82 NW12      30.12S
SALEM*         MOSUNNY   67  57  69 NW10      30.12F
METROPOLIS*    CLOUDY    66  56  71 NW5       30.11S
$$

ILZ067-068-072-073-078-083-087-091-292200-
SOUTHEAST ILLINOIS

CITY           SKY/WX    TMP DP  RH WIND       PRES   REMARKS
LAWRENCEVILLE  PTSUNNY   68  51  54 N12       30.09S
FLORA*         CLOUDY    68  56  67 N10G16    30.10S
FAIRFIELD*     CLOUDY    67  53  59 CALM      30.09S
HARRISBURG*    CLOUDY    66  55  65 N5        30.11S
ROBINSON*      CLOUDY    68  53  58 N9        30.10R
CARMI*         PTSUNNY   67  52  59 NW7       30.09S
$$

ABBREVIATIONS USED IN REMARKS
   TC - TEMPERATURE IN CELSIUS
  WCI - WIND CHILL INDEX
   HX - HEAT INDEX
  VSB - VISIBILITY
$$





USA.gov is the U.S. government's official web portal to all federal, state and local government web resources and services.